Location: Hac?musa Deresi
(39.1694°N, 32.2508°E)
Time: 10:36:43
(UTC+00:00)

CZ-4 R/B - Pass Details

Date: 22 April 2026
Orbit: 490 x 536 km, 97.5° (Epoch: 20 May)

Event Time Altitude Azimuth Distance (km) Brightness Sun altitude
Exits shadow 17:44:23 13° 161° (SSE) 1,528 3.2 -13.2°
Maximum altitude 17:47:37 76° 77° (ENE) 530 1.1 -13.8°
Drops below altitude 10° 17:51:19 10° 351° (N) 1,721 4.4 -14.4°
Sets 17:53:23 0° 350° (N) 2,602 5.4 -14.7°
